Date String (YYYY-MM-DD hh:mm:ss) UTC,Instrument flags,absolute air pressure of the measurement (hPa),sample flow rate (lpm),inlet stack bypass flow (lpm),air temperature of the measurement (°C),ambient temperature measured by the external sensor (°C),aerosol sample conditioner tube jacket temperature (°C),OPC LED temperature (°C),internal box temperature (°C),relative humidity of the measurement (%),span deviation,mass concentration of particles derived from Lorenz-Mie calculation of OPC scattering (μg/m³),mass concentration of particles derived from Lorenz-Mie calculation of OPC scattering (μg/m³),mass concentration of particles derived from Lorenz-Mie calculation of OPC scattering (μg/m³)
DateTimeUTC,F1_M11,P_M11,Q1_M11,Q2_M11,T1_M11,T2_M11,T3_M11,T4_M11,T5_M11,U1_M11,ZSPAN_M11,X2_M11,X0_M11,X1_M11
2023-12-31 09:00:00,SystemResetWarning,0829.6,5.00,000.00,022.9,022.0,000.0,031.2,024.3,10.3,0000.0,0004.05,0009.78,0003.60
2023-12-31 09:01:00,SystemResetWarning,0829.6,5.00,000.00,022.9,022.0,000.0,031.2,024.2,10.3,0000.0,0004.06,0009.84,0003.60
2023-12-31 09:02:00,SystemResetWarning,0829.6,4.98,000.00,022.9,022.0,000.0,031.2,024.2,10.4,0000.0,0004.05,0010.04,0003.60
2023-12-31 09:03:00,SystemResetWarning,0829.6,4.99,000.00,022.8,022.0,000.0,031.2,024.2,10.4,0000.0,0004.04,0010.05,0003.59
2023-12-31 09:04:00,SystemResetWarning,0829.6,5.00,000.00,022.8,021.9,000.0,031.2,024.2,10.5,0000.0,0004.05,0010.10,0003.59
2023-12-31 09:05:00,SystemResetWarning,0829.6,5.00,000.00,022.8,021.9,000.0,031.2,024.2,10.4,0000.0,0004.03,0009.51,0003.58
2023-12-31 09:06:00,SystemResetWarning,0829.6,5.01,000.00,022.8,021.9,000.0,031.2,024.2,10.4,0000.0,0004.03,0009.50,0003.58
2023-12-31 09:07:00,SystemResetWarning,0829.6,5.00,000.00,022.8,021.9,000.0,031.2,024.2,10.4,0000.0,0004.06,0009.34,0003.60
2023-12-31 09:08:00,SystemResetWarning,0829.6,5.00,000.00,022.8,021.9,000.0,031.2,024.2,10.5,0000.0,0004.08,0008.84,0003.60
2023-12-31 09:09:00,SystemResetWarning,0829.6,5.00,000.00,022.8,021.9,000.0,031.2,024.2,10.5,0000.0,0004.10,0008.79,0003.59
2023-12-31 09:10:00,SystemResetWarning,0829.6,4.99,000.00,022.8,021.9,000.0,031.1,024.2,10.5,0000.0,0004.09,0008.64,0003.58
2023-12-31 09:11:00,SystemResetWarning,0829.6,5.00,000.00,022.8,021.9,000.0,031.1,024.2,10.5,0000.0,0004.06,0008.37,0003.58
2023-12-31 09:12:00,SystemResetWarning,0829.6,5.00,000.00,022.8,021.9,000.0,031.1,024.2,10.5,0000.0,0004.01,0008.12,0003.56
2023-12-31 09:13:00,SystemResetWarning,0829.6,4.99,000.00,022.8,021.9,000.0,031.1,024.2,10.5,0000.0,0003.97,0007.95,0003.54
2023-12-31 09:14:00,SystemResetWarning,0829.6,5.01,000.00,022.8,021.9,000.0,031.1,024.2,10.4,0000.0,0003.96,0008.01,0003.53
2023-12-31 09:15:00,SystemResetWarning,0829.6,5.00,000.00,022.8,021.9,000.0,031.1,024.2,10.4,0000.0,0003.94,0007.94,0003.49
2023-12-31 09:16:00,SystemResetWarning,0829.6,5.01,000.00,022.8,021.9,000.0,031.1,024.2,10.4,0000.0,0003.94,0007.92,0003.46
2023-12-31 09:17:00,SystemResetWarning,0829.6,4.99,000.00,022.8,021.9,000.0,031.1,024.2,10.4,0000.0,0003.95,0008.02,0003.46
2023-12-31 09:18:00,SystemResetWarning,0829.7,5.00,000.00,022.8,021.9,000.0,031.1,024.2,10.4,0000.0,0003.93,0008.28,0003.43
2023-12-31 09:19:00,SystemResetWarning,0829.6,5.00,000.00,022.8,021.9,000.0,031.1,024.2,10.4,0000.0,0003.93,0008.42,0003.41
2023-12-31 09:20:00,SystemResetWarning,0829.7,5.00,000.00,022.8,021.9,000.0,031.1,024.2,10.4,0000.0,0003.88,0008.35,0003.39
2023-12-31 09:21:00,SystemResetWarning,0829.7,5.00,000.00,022.8,021.9,000.0,031.1,024.2,10.4,0000.0,0003.86,0008.39,0003.36
2023-12-31 09:22:00,SystemResetWarning,0829.7,4.99,000.00,022.8,021.9,000.0,031.1,024.2,10.4,0000.0,0003.90,0008.46,0003.36
2023-12-31 09:23:00,SystemResetWarning,0829.7,5.00,000.00,022.8,021.9,000.0,031.1,024.2,10.5,0000.0,0003.93,0008.34,0003.38
2023-12-31 09:24:00,SystemResetWarning,0829.7,5.00,000.00,022.8,021.9,000.0,031.1,024.2,10.5,0000.0,0003.96,0008.23,0003.40
2023-12-31 09:25:00,SystemResetWarning,0829.6,5.00,000.00,022.8,021.9,000.0,031.1,024.2,10.5,0000.0,0003.99,0008.10,0003.44
2023-12-31 09:26:00,SystemResetWarning,0829.6,5.00,000.00,022.8,021.9,000.0,031.1,024.2,10.5,0000.0,0004.01,0008.08,0003.48
2023-12-31 09:27:00,SystemResetWarning,0829.6,5.00,000.00,022.8,021.9,000.0,031.1,024.2,10.5,0000.0,0004.03,0008.08,0003.52
2023-12-31 09:28:00,SystemResetWarning,0829.6,5.00,000.00,022.8,021.8,000.0,031.1,024.2,10.5,0000.0,0004.05,0007.98,0003.55
2023-12-31 09:29:00,SystemResetWarning,0829.6,5.00,000.00,022.8,021.8,000.0,031.1,024.1,10.5,0000.0,0004.08,0007.79,0003.58
2023-12-31 09:30:00,SystemResetWarning,0829.6,5.00,000.00,022.8,021.8,000.0,031.1,024.1,10.5,0000.0,0004.12,0007.81,0003.62
2023-12-31 09:31:00,SystemResetWarning,0829.7,5.00,000.00,022.8,021.8,000.0,031.1,024.1,10.5,0000.0,0004.18,0008.11,0003.66
2023-12-31 09:32:00,SystemResetWarning,0829.6,5.00,000.00,022.8,021.8,000.0,031.1,024.1,10.6,0000.0,0004.22,0007.93,0003.69
2023-12-31 09:33:00,SystemResetWarning,0829.6,5.00,000.00,022.8,021.8,000.0,031.1,024.1,10.6,0000.0,0004.25,0008.24,0003.71
2023-12-31 09:34:00,SystemResetWarning,0829.7,5.00,000.00,022.8,021.8,000.0,031.1,024.2,10.7,0000.0,0004.27,0008.35,0003.72
2023-12-31 09:35:00,SystemResetWarning,0829.7,5.00,000.00,022.8,021.8,000.0,031.1,024.2,10.7,0000.0,0004.28,0008.98,0003.72
2023-12-31 09:36:00,SystemResetWarning,0829.7,5.00,000.00,022.8,021.8,000.0,031.1,024.1,10.6,0000.0,0004.28,0009.16,0003.71
2023-12-31 09:37:00,SystemResetWarning,0829.7,5.00,000.00,022.8,021.8,000.0,031.1,024.1,10.6,0000.0,0004.31,0009.87,0003.73
2023-12-31 09:38:00,SystemResetWarning,0829.7,5.00,000.00,022.8,021.8,000.0,031.1,024.1,10.5,0000.0,0004.33,0010.09,0003.74
2023-12-31 09:39:00,SystemResetWarning,0829.6,5.00,000.00,022.7,021.8,000.0,031.1,024.0,10.6,0000.0,0004.33,0010.00,0003.75
2023-12-31 09:40:00,SystemResetWarning,0829.7,5.00,000.00,022.7,021.8,000.0,031.1,023.9,10.5,0000.0,0004.36,0010.48,0003.77
2023-12-31 09:41:00,SystemResetWarning,0829.7,5.00,000.00,022.7,021.7,000.0,031.1,023.9,10.6,0000.0,0004.36,0010.58,0003.76
2023-12-31 09:42:00,SystemResetWarning,0829.7,5.00,000.00,022.7,021.7,000.0,031.0,023.9,10.6,0000.0,0004.37,0011.01,0003.76
2023-12-31 09:43:00,SystemResetWarning,0829.7,5.01,000.00,022.7,021.7,000.0,031.0,023.9,10.5,0000.0,0004.40,0011.16,0003.77
2023-12-31 09:44:00,SystemResetWarning,0829.7,5.00,000.00,022.7,021.7,000.0,031.0,023.9,10.6,0000.0,0004.38,0010.92,0003.78
2023-12-31 09:45:00,SystemResetWarning,0829.7,5.00,000.00,022.7,021.7,000.0,031.0,023.9,10.6,0000.0,0004.39,0011.18,0003.79
2023-12-31 09:46:00,SystemResetWarning,0829.6,5.00,000.00,022.7,021.7,000.0,031.0,023.9,10.6,0000.0,0004.39,0010.67,0003.80
2023-12-31 09:47:00,SystemResetWarning,0829.6,5.00,000.00,022.6,021.7,000.0,031.0,023.9,10.6,0000.0,0004.42,0011.00,0003.80
2023-12-31 09:48:00,SystemResetWarning,0829.6,5.00,000.00,022.6,021.7,000.0,031.0,023.9,10.7,0000.0,0004.39,0010.99,0003.77
2023-12-31 09:49:00,SystemResetWarning,0829.6,5.00,000.00,022.6,021.7,000.0,031.0,023.9,10.7,0000.0,0004.37,0011.28,0003.75
2023-12-31 09:50:00,SystemResetWarning,0829.6,5.00,000.00,022.6,021.7,000.0,031.0,023.8,10.7,0000.0,0004.36,0011.32,0003.72
2023-12-31 09:51:00,SystemResetWarning,0829.6,5.00,000.00,022.6,021.7,000.0,031.0,023.8,10.7,0000.0,0004.32,0010.97,0003.69
2023-12-31 09:52:00,SystemResetWarning,0829.6,5.00,000.00,022.6,021.6,000.0,030.9,023.8,10.7,0000.0,0004.28,0011.14,0003.66
2023-12-31 09:53:00,SystemResetWarning,0829.6,5.00,000.00,022.5,021.6,000.0,030.9,023.7,10.7,0000.0,0004.25,0010.68,0003.64
2023-12-31 09:54:00,SystemResetWarning,0829.5,5.00,000.00,022.5,021.6,000.0,030.9,023.7,10.7,0000.0,0004.18,0010.52,0003.62
2023-12-31 09:55:00,SystemResetWarning,0829.5,5.00,000.00,022.5,021.6,000.0,030.9,023.7,10.7,0000.0,0004.13,0010.38,0003.61
2023-12-31 09:56:00,SystemResetWarning,0829.5,5.00,000.00,022.5,021.5,000.0,030.9,023.7,10.7,0000.0,0004.08,0010.08,0003.58
2023-12-31 09:57:00,SystemResetWarning,0829.5,5.00,000.00,022.5,021.5,000.0,030.9,023.7,10.8,0000.0,0004.03,0009.91,0003.55
2023-12-31 09:58:00,SystemResetWarning,0829.5,5.00,000.00,022.4,021.5,000.0,030.9,023.7,10.8,0000.0,0004.00,0009.57,0003.53
2023-12-31 09:59:00,SystemResetWarning,0829.5,5.00,000.00,022.4,021.5,000.0,030.8,023.7,10.8,0000.0,0003.96,0008.68,0003.52
